ワイズ彗星

245P/WISE (2018)

English version
Home page
Updated on August 11, 2020

---------------------------------------------------------------------

・ プロフィール

・ 写真集

・ 軌道要素

Epoch 2018 Feb. 11.0 TT = JDT 2458160.5                                         
T 2018 Feb. 8.65131 TT                                  Rudenko                 
q   2.1899396            (2000.0)            P               Q                  
n   0.12141841     Peri.  316.67523     +0.09035375     +0.96451083             
a   4.0390542      Node   316.67829     -0.78622279     -0.08383306             
e   0.4578088      Incl.   21.19950     -0.61130183     +0.25038145             
P   8.12                                                                        
From 92 observations 2002 Aug. 27-2018 Oct. 4, mean residual 0".6.              

・ 光度変化

        m1 = 14.7 + 5 logΔ + 10.0 log r

---------------------------------------------------------------------

軌道要素はM.P.E.C. 2020-P19に掲載されたものです。
光度グラフはComet for Windowsで作成したものです。

---------------------------------------------------------------------

Copyright(C) Seiichi Yoshida (comet@aerith.net). All rights reserved.